Location: Auttagershofen
(48.1940°N, 10.0237°E)
Time: 20:22:16
(UTC+00:00)

Gbstr 26 Del rocket - Pass Details

Date: 18 January 2026
Orbit: 490 x 1217 km, 51.8° (Epoch: 17 February)

Event Time Altitude Azimuth Distance (km) Brightness Sun altitude
Exits shadow 06:15:47 - 268° (W) 3,398 6.3 -7.9°
Reaches altitude 10° 06:16:56 10° 269° (W) 2,999 6.0 -7.8°
Maximum altitude 06:24:10 66° 352° (N) 1,080 4.2 -6.7°
Drops below altitude 10° 06:30:11 10° 75° (ENE) 2,513 7.0 -5.7°
Sets 06:32:30 0° 78° (ENE) 3,341 7.8 -5.4°
